Weather in Udaipur

India     24°33′30″N   73°42′22″E
temp.,
°C
wind,
m/s
gust,
m/s
humid.,
%
clouds,
%
prec.,
mm/h
press.,
hPa
HPBL,
m
21 april, wed
wed2123:30+25nw332710 0.0 100949
02:30+24wnw3334100 0.0 100844
05:30+22wnw22372 0.0 100914
08:30+29nw46210 0.0 1011846
11:30+34wsw68100 0.0 10103945
14:30+35wsw7910100 0.0 10075423
17:30+34wnw781115 0.0 10064229
20:30+28nw410170 0.0 1009225
22 april, thu
thu2223:30+26nw34220 0.0 101050
02:30+25nw33250 0.0 101025
05:30+22nne11310 0.0 101111
08:30+27ese22260 0.0 1012392
11:30+34s34130 0.0 10113190
14:30+37wsw55102 0.0 10074229
17:30+36wsw651243 0.0 10064161
20:30+30w491722 0.0 1009166
23 april, fri
fri2323:30+27wnw35200 0.0 100993
02:30+25w22220 0.0 100718
05:30+24w510310 0.0 1008190
08:30+31w610170 0.0 1009640
11:30+36sw8790 0.0 10092977
14:30+38sw7780 0.0 10064020
17:30+36wsw87105 0.0 10054314
20:30+31wsw6121760 0.0 1007278
24 april, sat
sat2423:30+29w51026100 0.0 1008204
02:30+26w61343100 0.0 1008344
05:30+24nne115076 0.0 100811
08:30+28se333890 0.0 1011500
11:30+35s2219100 0.0 10092026
14:30+38ssw441299 0.0 10064707
17:30+33ne5618100 0.2 10071115
20:30+31n462188 0.0 1010129
25 april, sun
sun2523:30+28w222647 0.0 101014
02:30+27wnw2229100 0.0 100914
05:30+26wnw1129100 0.0 101011
08:30+31nw2326100 0.0 1012455
11:30+36ese231620 0.0 10103968
14:30+20nw81368100 3.3 1012298
17:30+26w101336100 6.3 1009323
20:30+28wnw4826100 0.0 1008154